Content
SEND FEEDBACK

Daily
Averages
Monthly
Summary
United States of America

CANTON, NEW YORK


Home > North America > United States > New York
Elevation: 440 feet     Latitude: 44 34N     Longitude: 075 07W

WEATHER
 
SELECT A DAY
Number of Records: 223,358;   Date Range: 1/1/95 - 12/19/14
 
SHARE

PRINT THIS DATA

[ ← Previous Day ]
WEATHER ALMANAC - JANUARY 31, 2013
[ Next Day → ]
[ °C ]   °F
Weather ElementAverageHighLow
Temperature34.1 °F53.1 °F (2:53 am)12.9 °F (11:53 pm)
Dewpoint26.6 °F50 °F (1:53 am)3.9 °F (11:53 pm)
Humidity74.5 %94 % (4:37 am)51 % (2:53 pm)
Barometer29.13 in29.63 in (11:53 pm)28.84 in (3:53 am)
Wind Speed21.6 mph31.1 mph (1:53 pm)
Wind Gust47.2 mph (11:47 am)
Weather ElementAverage
Visibility7.4 mi
Wind DirectionWSW (240.9 °)

Weather ElementTotal
Precipitation0.81 in
Heating Degree Days32 (Base 65)
Averaged from 43 records on January 31, 2013
WEATHER CONDITIONS BREAKOUT
WIND DIRECTION BREAKOUT
WEATHER BY HOUR - JANUARY 31, 2013
[ °C ]   °F
Local TimeTemperatureDewpointHumidityBarometerVisibilityWind DirectionWind SpeedGust SpeedPrecipitationEventsConditions
1:53 AM52.0 °F50.0 °F93 %29.01 in6.0 miSSE (160°)9.2 mph0.11 inRainRain
2:53 AM53.1 °F50.0 °F89 %28.94 in7.0 miSouth (170°)15.0 mph21.9 mph0.10 inRainRain
3:53 AM52.0 °F50.0 °F93 %28.84 in8.0 miSouth (170°)8.1 mph0.09 inRainLight Rain
4:37 AM51.8 °F50.0 °F94 %28.85 in4.0 miWSW (250°)12.7 mph23.0 mph0.12 inRainLight Rain
4:53 AM52.0 °F48.9 °F89 %28.86 in5.0 miSW (230°)24.2 mph31.1 mph0.16 inRainRain
5:05 AM50.0 °F46.4 °F87 %28.87 in9.0 miSW (220°)23.0 mph33.4 mph0.01 inRainLight Rain
5:27 AM46.4 °F44.6 °F93 %28.87 in10.0 miSW (230°)23.0 mph36.8 mph0.02 inRainLight Rain
5:53 AM44.1 °F41.0 °F89 %28.92 in7.0 miSW (220°)25.3 mph34.5 mph0.04 inRainRain
6:40 AM39.2 °F37.4 °F93 %28.92 in10.0 miSW (220°)28.8 mph36.8 mph0.05 inRainLight Rain
6:51 AM39.2 °F35.6 °F87 %28.93 in10.0 miSW (220°)23.0 mph42.6 mph0.05 inRainLight Rain
6:53 AM39.2 °F35.6 °F87 %28.93 in10.0 miSW (220°)19.6 mph42.6 mphRainLight Rain
7:42 AM37.4 °F33.8 °F87 %28.97 in10.0 miSW (220°)26.5 mph41.4 mph0.00 inRainLight Rain
7:53 AM37.9 °F34.0 °F86 %28.99 in10.0 miSW (220°)21.9 mph36.8 mph0.00 inOvercast
8:31 AM39.2 °F33.8 °F81 %29.01 in10.0 miWSW (240°)26.5 mph42.6 mphOvercast
8:38 AM37.4 °F32.0 °F81 %29.01 in10.0 miSW (220°)20.7 mph42.6 mph0.00 inOvercast
8:53 AM37.0 °F32.0 °F82 %29.04 in10.0 miSW (230°)24.2 mph38.0 mph0.00 inRainLight Rain
9:33 AM35.6 °F28.4 °F75 %29.05 in5.0 miWSW (250°)24.2 mph35.7 mph0.00 inSnowLight Snow
9:50 AM35.6 °F26.6 °F70 %29.06 in10.0 miWSW (250°)24.2 mph44.9 mph0.00 inMostly Cloudy
9:53 AM35.1 °F26.1 °F70 %29.08 in10.0 miWSW (240°)24.2 mph44.9 mph0.00 inMostly Cloudy
10:21 AM33.8 °F26.6 °F75 %29.09 in2.5 miWSW (240°)17.3 mph32.2 mph0.01 inSnowLight Snow
10:25 AM33.8 °F26.6 °F75 %29.10 in1.2 miWSW (240°)23.0 mph32.2 mph0.01 inSnowLight Snow
10:32 AM33.8 °F26.6 °F75 %29.10 in1.2 miWSW (250°)20.7 mph35.7 mph0.01 inSnowLight Snow
10:35 AM33.8 °F26.6 °F75 %29.10 in2.5 miWSW (240°)23.0 mph35.7 mph0.01 inSnowLight Snow
10:42 AM33.8 °F26.6 °F75 %29.11 in7.0 miWSW (240°)24.2 mph36.8 mph0.01 inSnowLight Snow
10:53 AM34.0 °F24.1 °F67 %29.13 in10.0 miWSW (240°)20.7 mph39.1 mph0.01 inOvercast
11:47 AM30.2 °F21.2 °F69 %29.14 in1.5 miWSW (250°)27.6 mph47.2 mph0.00 inSnowLight Snow
11:51 AM30.2 °F21.2 °F69 %29.14 in1.0 miWSW (240°)25.3 mph47.2 mph0.00 inSnowLight Snow
11:53 AM30.0 °F21.9 °F72 %29.15 in0.8 miWSW (240°)26.5 mph47.2 mph0.00 inSnowLight Snow
11:58 AM30.2 °F23.0 °F75 %29.14 in1.0 miWSW (240°)25.3 mph41.4 mph0.00 inSnowLight Snow
12:02 PM30.2 °F24.8 °F80 %29.14 in2.0 miWSW (240°)21.9 mph39.1 mph0.00 inSnowLight Snow
12:09 PM32.0 °F23.0 °F69 %29.14 in9.0 miWSW (240°)23.0 mph39.1 mph0.00 inOvercast
12:53 PM32.0 °F18.0 °F56 %29.19 in9.0 miWSW (240°)27.6 mph47.2 mph0.00 inOvercast
1:53 PM30.0 °F15.1 °F54 %29.22 in10.0 miWSW (250°)31.1 mph43.7 mphOvercast
2:53 PM30.0 °F14.0 °F51 %29.25 in10.0 miWSW (240°)28.8 mph47.2 mphOvercast
3:53 PM28.0 °F12.9 °F53 %29.31 in10.0 miWSW (250°)26.5 mph40.3 mph0.00 inOvercast
4:53 PM26.1 °F10.9 °F53 %29.35 in10.0 miWSW (250°)28.8 mph43.7 mphOvercast
5:53 PM23.0 °F8.1 °F53 %29.43 in10.0 miWNW (290°)27.6 mph34.5 mphOvercast
6:53 PM18.0 °F8.1 °F65 %29.49 in10.0 miWNW (290°)15.0 mph23.0 mphScattered Clouds
7:53 PM18.0 °F7.0 °F62 %29.52 in10.0 miWNW (290°)12.7 mphOvercast
8:53 PM17.1 °F6.1 °F62 %29.54 in10.0 miWest (280°)11.5 mphPartly Cloudy
9:53 PM17.1 °F6.1 °F62 %29.56 in10.0 miWNW (290°)12.7 mphMostly Cloudy
10:53 PM15.1 °F5.0 °F64 %29.59 in10.0 miWNW (300°)12.7 mphOvercast
11:53 PM12.9 °F3.9 °F67 %29.63 in10.0 miNW (310°)12.7 mph21.9 mphMostly Cloudy
Hourly data recorded from KMSS, located miles away from Canton, New York







STORIES FROM OUR PARTNERS